Location: Belfast
(54.5830°N, 5.9330°W)
Time: 13:00:22
(UTC+00:00)

ISS - Pass Details

Date: 15 December 2017
Orbit: 402 x 406 km, 51.6° (Epoch: 16 December)

Event Time Altitude Azimuth Distance (km) Brightness Sun altitude
Rises 16:50:40 0° 275° (W) 2,333 1.0 -7.0°
Reaches altitude 10° 16:52:56 10° 264° (W) 1,470 0.2 -7.3°
Maximum altitude 16:55:47 27° 204° (SSW) 812 -1.6 -7.6°
Drops below altitude 10° 16:58:38 10° 143° (SE) 1,464 -1.1 -8.0°
Sets 17:00:52 0° 131° (SE) 2,320 -0.2 -8.3°
